Location: Larrial
(48.2758°N, 4.5331°W)
Time: 03:02:04
(UTC+00:00)

N. Korean satellite - Visible Passes

Search period start: 21 September 2021 00:00
Search period end: 01 October 2021 00:00
Orbit: 448 x 498 km, 97.3° (Epoch: 20 September)

Date Brightness Start Highest point End Pass type
(mag) Time Alt. Az. Time Alt. Az. Time Alt. Az.
21 Sep 7.7 05:23:37 10° NNE 05:27:01 47° E 05:30:28 10° S visible
22 Sep 9.2 04:56:18 10° NE 04:59:10 23° E 05:02:02 10° SSE visible
23 Sep 10.0 04:29:55 10° ENE 04:31:10 11° E 04:32:26 10° ESE visible
24 Sep 7.1 05:33:29 10° NNE 05:37:00 64° ESE 05:40:33 10° S visible
25 Sep 8.8 05:06:00 10° NNE 05:09:09 29° E 05:12:20 10° SSE visible
26 Sep 9.8 04:39:03 10° NE 04:41:11 15° E 04:43:20 10° SE visible
28 Sep 8.2 05:15:43 10° NNE 05:19:05 39° E 05:22:29 10° SSE visible
29 Sep 9.6 04:48:29 10° NE 04:51:09 19° E 04:53:49 10° SE visible
